Location: Unspecified
(0.0000°N, 0.0000°E)
Time: 23:42:09
(UTC+00:00)

Transit 2A Rocket - Visible Passes

Search period start: 12 December 2018 00:00
Search period end: 22 December 2018 00:00
Orbit: 588 x 916 km, 66.7° (Epoch: 12 December)

Date Brightness Start Highest point End Pass type
(mag) Time Alt. Az. Time Alt. Az. Time Alt. Az.
12 Dec 6.6 18:14:48 10° NNE 18:18:56 19° ENE 18:23:03 10° ESE visible
12 Dec 6.7 19:55:47 10° NW 20:01:21 38° WSW 20:06:50 10° S visible
13 Dec 5.5 19:12:50 10° NNW 19:18:56 74° WSW 19:24:54 10° SSE visible
14 Dec 5.4 18:30:32 10° N 18:36:31 57° ENE 18:42:22 10° SSE visible
14 Dec 8.4 20:16:50 10° W 20:18:53 12° WSW 20:20:55 10° SW visible
15 Dec 7.6 19:31:38 10° WNW 19:36:26 24° WSW 19:41:08 10° SSW visible
16 Dec 6.5 18:48:11 10° NW 18:54:00 47° WSW 18:59:43 10° S visible
18 Dec 8.4 04:57:57 10° ESE 04:58:54 11° ESE 04:59:52 10° E visible
18 Dec 8.5 19:08:10 10° WNW 19:11:31 15° WSW 19:14:49 10° SW visible
19 Dec 7.6 18:23:51 10° NW 18:29:05 30° WSW 18:34:11 10° S visible
20 Dec 5.8 05:12:12 10° S 05:16:18 46° ESE 05:20:31 10° NE visible
21 Dec 7.4 04:30:50 10° SSE 04:33:55 19° ESE 04:37:02 10° ENE visible
